Location: *
(41.7492°S, 135.4150°W)
Time: 15:15:33
(UTC+00:00)

Oscar 19 - Visible Passes

Search period start: 02 July 2022 00:00
Search period end: 12 July 2022 00:00
Orbit: 772 x 790 km, 98.8° (Epoch: 02 July)

Date Brightness Start Highest point End Pass type
(mag) Time Alt. Az. Time Alt. Az. Time Alt. Az.
02 Jul 13.3 02:25:53 10° SW 02:27:47 12° WSW 02:29:41 10° WSW visible
05 Jul 13.4 02:29:27 10° SW 02:30:58 11° WSW 02:32:30 10° WSW visible
08 Jul 13.5 02:33:08 10° SW 02:34:09 11° SW 02:35:10 10° WSW visible
